STARLINK-32348, 61631

Orbit data source: Space-Track

STARLINK-32348, 61631 is a payload satellite owned by SpaceX/Seattle (US) in LEO that was launched on Wed, 23 Oct 2024 UTC via an FALCON 9 launch vehicle from the Air Force Eastern Test Range (AFETR). Payload-class satellites include a variety of spacecraft equipped with specific instruments for various scientific and technological missions. These include communications satellites like Starlink; space stations such as the ISS; scientific satellites like the Hubble; Earth observation satellites from companies like Planet Labs, Umbra, and HawkEye 360; GPS; miniature CubeSats for education and research; and military/defense satellites.

Loading next visibility...
Identifier
61631, 2024-191L
Orbit
LEO
Country
Flag of USUS
Related business
Manufacturer
SpaceX/Seattle
Mission
Operational Commercial Communications
Bus & Motor
STARLINK V2M, Unknown motor
Mass
730 kg wet, ~700 kg dry
Launch date (UTC)
2024-10-23 (1 year ago)
Launch vehicle
FALCON 9
Launch site
Air Force Eastern Test Range (AFETR)
Object type
Payload
Rocket body
Debris
Shape & HBR
Box + 2 Pan, 17.7 m
Radar Cross Section
33.884 m², Large (>1 m²)

Expand to show TLE details & history
Last TLE update: 1 day ago

TLE from 1 day ago
0 STARLINK-32348
1 61631U 24191L   25305.65172359 -.00002996  00000-0 -99374-4 0  9991
2 61631  42.9997 161.1521 0000620 267.1216  92.9565 15.27583915 57913
Epoch: 2025-11-01T15:38Z
TLE epoch observation values (Epoch: 2025-11-01T15:38:28.918Z)
Latitude
0.00002°
Longitude
-114.64711°
Altitude
482.835 km
Speed
7.626 km/s
True Right ascension
10h 44m 36s
True Declination
0° 00' 00"
Sunlit
Object was in daylight at epoch
Visualization orbit readout
Latitude
Unknown
Longitude
Unknown
Altitude
Unknown
Speed
Unknown
Apparent Right ascension
Unknown
Apparent Declination
Unknown
Sunlit
N/A
Visualization observer readout
Local Sidereal Time
13:48:13
Azimuth
Unknown
Elevation
Unknown
Doppler factor
Unknown
Orbital elements
Apogee altitude
485.408 km
Perigee altitude
484.557 km
Semi-major axis
6,863.12 km
Eccentricity
0.00006
Inclination
42.9997°
RAAN
161.1521°
Arg. of periapsis
267.1216°
True anomaly
92.9636°
Mean anomaly
92.9565°
Eccentric anomaly
92.96005°
Mean motion
3.81734 °/min
Orbital period
94.31 mins
BSTAR
-0.000099374
Loading maneuver chart data...
Computing Atmospheric mass density...
Loading historical data...
Loading historical data...
Loading historical data...
Loading historical data...
Loading historical data...
Loading historical data...
Loading historical data...

Documentation

Showing up to 5 results
|